SCP
1 1 1 1 1 2 2 1 1 1 1 1 1 1 1 1 0 0 1 1 1 2 1 1 1 1 1 1 1 1 1 1 1 1 1 1 1 1 1 1 1 1 1
1 1 1 1 1 1 1 1 1 1 1 1 1 1 1 1 0 0 1 1 2 1 1 1 2 1 1 1 1 1 1 1 1 1 1 1 1 1 1 1 1 1 1
1 1 1 1 1 1 1 1 1 1 1 1 1 1 1 1 1 1 1 1 1 1 1 1 1 1 1 1 1 1 1 1 1 1 1 1 1 1 1 1 1 1 1
1 1 1 1 1 1 1 1 1 1 1 1 1 1 1 1 1 1 1 1 1 1 1 1 1 1 1 1 1 1 1 1 1 1 1 1 1 1 1 1 1 1 1
1 1 1 1 1 1 1 1 1 1 1 1 1 1 1 1 1 1 1 1 1 1 1 1 1 1 1 1 1 1 1 1 1 1 1 1 1 1 1 1 1 1 1
1 1 1 1 1 1 1 1 1 1 1 0 0 1 1 1 1 1 1 1 1 1 1 1 1 1 1 1 1 1 1 1 1 1 1 1 1 1 1 1 1 1 1
1 1 1 1 1 1 1 1 1 1 0 0 0 1 1 1 1 1 1 1 1 1 1 1 1 1 1 1 1 1 1 1 1 1 1 1 1 1 1 1 1 1 1
1 1 1 1 1 1 1 1 1 1 0 0 0 1 1 1 1 1 1 1 1 1 1 1 1 1 1 1 1 1 1 1 1 1 1 1 1 1 1 1 1 1 1
1 1 1 2 2 1 1 1 1 1 0 0 0 0 0 0 0 1 1 1 1 1 1 1 1 1 1 1 1 1 1 1 1 1 1 2 1 1 1 1 1 1 1
0 1 1 2 2 1 1 1 1 0 0 0 0 0 0 0 0 0 0 1 1 1 1 1 1 1 1 1 1 1 1 1 1 1 1 2 1 1 1 1 1 1 1
0 0 1 1 1 1 1 0 0 0 0 0 0 0 0 0 0 0 0 0 1 1 1 1 1 1 1 1 1 1 1 1 1 1 1 2 1 1 1 1 1 1 1
0 0 0 0 0 0 0 0 0 0 0 0 0 0 0 0 0 0 0 0 0 0 0 0 0 1 1 1 0 0 0 0 0 1 1 1 1 1 1 1 1 1 1
0 0 0 0 0 0 0 0 0 0 0 0 0 0 0 0 0 0 0 0 0 0 0 0 0 0 0 0 0 0 0 0 0 0 1 1 1 0 1 1 1 1 1
0 0 0 0 0 0 0 0 0 0 0 0 0 0 0 0 0 0 0 0 0 0 0 0 0 0 0 0 0 0 0 0 0 0 0 0 0 0 0 0 0 0 0
0 0 0 0 0 0 0 0 0 0 0 0 0 0 0 0 0 0 0 0 0 0 0 0 0 0 0 0 0 0 0 0 0 0 0 0 0 0 0 0 0 0 0
0 0 0 0 0 0 0 0 0 0 0 0 0 0 0 0 0 0 0 0 0 0 0 0 0 0 0 0 0 0 0 0 0 0 0 0 0 0 0 0 0 0 0
0 0 0 0 0 0 0 0 0 0 0 0 0 0 0 0 0 0 0 0 0 0 0 0 0 0 0 0 0 0 0 0 0 0 0 0 0 0 0 0 0 0 0
0 0 0 0 0 0 0 0 0 0 0 0 0 0 0 0 0 0 0 0 0 0 0 0 0 0 0 0 0 0 0 0 0 0 0 0 0 0 0 0 0 0 0
0 0 0 0 0 0 0 0 0 0 0 0 0 0 0 0 0 0 0 0 0 0 0 0 0 0 0 0 0 0 0 0 0 0 0 0 0 0 0 0 0 0 0
0 0 0 0 0 0 0 0 0 0 0 0 0 0 0 0 0 0 0 0 0 0 0 0 0 0 0 0 0 0 0 0 0 0 0 0 0 0 0 0 0 0 0
0 0 0 0 0 0 0 0 0 0 0 0 0 0 0 0 0 0 0 0 0 0 0 0 0 0 0 0 0 0 0 0 0 0 0 0 0 0 0 0 0 0 0
0 0 0 0 0 0 0 0 0 0 0 0 0 0 0 0 0 0 0 0 0 0 0 0 0 0 0 0 0 0 0 0 0 0 0 0 0 0 0 0 0 0 0
0 0 0 0 0 0 0 0 0 0 0 0 0 0 0 0 0 0 0 0 0 0 0 0 0 0 0 0 0 0 0 0 0 0 0 0 0 0 0 0 0 0 0
0 0 0 0 0 0 0 0 0 0 0 0 0 0 0 0 0 0 0 0 0 0 0 0 0 0 0 0 0 0 0 0 0 0 0 0 0 0 0 0 0 0 0
0 0 0 0 0 0 0 0 0 0 0 0 0 0 0 0 0 0 0 0 0 0 0 0 0 0 0 0 0 0 0 0 0 0 0 0 0 0 0 0 0 0 0
0 0 0 0 0 0 0 0 0 0 0 0 0 0 0 0 0 0 0 0 0 0 0 0 0 0 0 0 0 0 0 0 0 0 0 0 0 0 0 0 0 0 0
Wind_Speed
1 1 1 2 2 2 2 2 2 3 3 4 3 4 3 4 3 3 2 8 11 11 11 13 14 14 13 13 13 13 13 13 12 12 11 10 10 9 9 8 8 7 7
2 2 1 1 1 1 2 2 3 3 3 2 2 3 2 3 3 3 3 5 11 11 11 11 12 12 12 12 12 12 12 13 13 12 12 11 11 10 10 9 9 8 8
2 2 1 1 1 1 1 1 2 1 2 2 2 2 1 2 2 3 3 2 3 8 10 10 10 11 12 12 12 12 12 13 13 13 13 12 12 11 11 10 10 9 8
2 1 1 0 0 1 0 1 1 1 1 1 1 2 1 2 2 3 2 2 2 3 5 7 8 8 9 10 11 11 11 12 12 12 13 13 12 12 11 11 10 10 9
2 1 1 0 0 0 0 1 0 1 1 1 2 2 2 2 2 2 2 3 3 3 2 4 6 7 8 8 8 10 10 10 11 11 12 12 12 11 11 10 10 10 10
2 1 1 0 0 0 0 1 1 1 1 1 1 1 2 2 2 2 2 2 2 3 2 2 2 3 5 6 6 7 9 9 10 11 12 12 11 11 10 10 10 10 10
2 2 1 1 1 0 0 1 1 1 1 1 0 2 2 2 1 1 1 1 1 1 1 1 1 1 2 5 5 6 7 8 9 10 11 11 11 11 11 10 10 10 11
3 2 2 2 1 1 1 1 0 0 1 1 1 0 1 3 2 1 0 1 1 1 1 1 0 0 1 1 2 5 5 7 8 9 9 10 11 11 11 11 11 11 11
3 3 3 2 2 1 1 1 1 0 1 1 1 2 2 2 1 2 1 1 1 1 1 1 1 1 1 0 1 2 4 5 7 8 8 9 10 10 11 11 11 11 11
3 3 3 3 3 2 2 2 1 0 0 1 1 1 2 2 2 1 2 1 1 1 1 1 1 1 1 1 1 1 0 2 4 6 7 7 8 9 9 10 10 11 11
3 3 3 3 3 2 2 3 2 2 0 0 0 1 1 0 1 2 1 1 1 1 1 0 0 0 0 1 1 1 1 0 1 3 5 5 6 7 8 9 10 11 11
3 4 3 3 2 2 2 2 2 2 2 1 0 0 0 0 1 1 2 1 1 1 1 1 0 0 0 1 1 1 0 1 2 3 4 5 6 6 6 7 8 9 10
2 3 3 3 3 3 3 2 2 2 2 1 1 0 0 1 1 1 2 1 1 1 1 1 1 1 1 1 1 1 0 1 2 3 4 5 6 6 6 6 7 8 9
1 2 3 3 3 3 3 3 2 2 2 1 2 1 0 1 1 1 2 2 1 1 0 1 1 1 1 1 1 1 0 2 3 4 4 5 5 6 7 7 6 7 7
1 3 3 3 3 4 3 3 2 2 2 1 1 1 1 1 1 1 1 2 3 2 2 1 1 1 1 1 2 1 0 2 4 5 6 6 7 7 8 8 7 7 6
3 3 3 4 4 4 4 3 2 2 2 2 1 1 1 1 1 1 1 1 2 2 2 1 0 1 2 2 3 2 2 4 6 7 8 8 7 8 8 8 7 6 6
3 3 3 3 4 4 4 4 3 3 3 3 3 2 2 2 1 1 1 1 1 2 2 1 0 1 1 2 2 3 3 3 4 8 9 9 8 8 8 7 7 7 7
3 3 3 3 4 4 4 4 4 4 3 3 3 3 3 2 1 1 1 1 1 1 3 3 1 1 1 2 3 3 3 3 3 7 8 8 8 7 7 6 6 6 5
3 3 3 3 3 4 4 4 3 3 3 3 3 3 3 2 1 1 1 1 1 1 2 4 2 1 1 2 3 3 4 3 3 4 5 6 6 6 5 5 4 4 3
3 3 3 3 3 3 4 4 3 3 3 3 4 4 3 2 1 1 1 1 2 3 3 3 3 2 2 2 2 3 2 2 2 2 3 3 3 3 3 2 2 2 3
3 3 3 3 3 3 3 3 3 3 3 3 4 4 4 4 3 1 1 2 3 3 3 4 3 2 2 2 2 2 3 2 1 1 1 1 1 0 1 2 3 4 5
3 3 3 3 4 3 4 4 2 2 2 2 3 4 4 4 4 3 1 2 4 4 4 4 3 4 3 3 2 3 3 2 0 1 2 1 1 1 2 2 5 6 7
3 3 3 3 3 4 5 4 4 2 2 2 2 3 3 4 4 2 3 3 2 3 5 4 5 5 5 4 4 3 3 2 2 2 2 1 1 2 3 4 7 8 9
2 2 2 2 2 4 6 5 4 3 3 3 2 2 2 3 3 2 2 2 2 1 2 3 4 4 4 4 4 4 4 2 1 0 3 1 1 2 2 3 7 9 9
1 1 1 2 2 4 6 4 3 2 3 3 4 3 3 2 3 2 2 3 2 2 2 4 3 3 4 5 4 4 3 3 1 1 1 2 1 1 2 3 4 8 9
1 1 2 2 2 3 5 4 3 1 2 2 3 3 5 4 3 2 2 2 2 1 2 3 2 2 1 2 4 5 5 4 2 1 2 2 1 1 1 3 2 2 4
Wind_Direction
163 160 209 218 212 211 206 212 218 227 238 242 236 234 229 220 225 226 228 212 205 205 205 204 203 204 206 207 207 206 204 202 200 196 194 192 189 186 186 186 184 182 182
163 163 186 209 224 234 220 212 214 219 236 243 251 243 228 219 214 218 223 219 210 207 209 206 205 206 207 209 212 213 210 208 205 200 197 194 190 190 189 186 183 181 179
151 170 179 181 233 249 238 225 221 227 243 254 263 258 236 226 221 223 216 214 213 215 213 210 211 212 213 213 215 214 214 213 209 205 202 199 195 193 192 188 185 183 182
130 149 143 184 283 278 274 236 227 223 234 239 254 266 249 232 230 223 209 204 205 213 217 214 212 215 217 216 216 216 216 216 213 209 206 205 201 196 194 192 189 186 183
107 123 127 166 332 10 297 275 196 193 223 245 247 248 249 235 231 225 213 206 201 198 199 224 223 222 220 219 220 220 218 217 214 209 206 205 201 196 193 191 188 187 183
58 74 77 20 39 57 340 276 232 188 209 231 260 270 263 255 229 218 216 212 200 198 190 202 223 231 224 221 220 222 223 221 217 211 207 204 197 191 189 187 186 185 180
40 42 33 19 16 29 314 272 229 215 231 229 19 331 318 297 276 238 207 174 192 188 161 172 197 219 236 232 227 225 226 228 224 220 214 206 198 192 189 188 188 188 184
33 43 44 26 2 15 10 19 42 297 274 196 142 137 320 334 342 330 17 150 162 106 94 108 42 284 271 245 248 236 233 234 229 223 217 207 200 196 193 193 194 189 183
42 42 39 39 29 38 2 4 25 146 252 278 163 156 173 226 294 335 3 53 71 86 82 66 52 13 0 280 262 255 238 228 222 220 212 205 203 201 200 198 196 188 181
32 41 38 37 30 26 14 360 18 335 174 289 313 237 203 181 183 277 337 7 46 71 68 52 26 345 337 310 325 10 284 246 222 219 209 200 198 197 194 194 194 189 185
28 33 39 31 25 22 23 18 18 21 43 155 238 302 299 261 189 181 238 305 9 359 13 4 264 285 317 316 290 21 54 84 145 183 180 180 182 190 192 192 194 191 185
15 19 37 30 22 19 19 13 16 23 20 18 40 137 164 193 200 184 204 217 257 303 344 348 347 325 301 289 288 351 39 149 155 157 157 164 166 174 182 184 184 179 174
14 5 23 20 14 8 11 12 13 12 9 2 346 309 244 232 213 194 185 192 214 259 320 349 349 357 346 329 299 343 68 126 150 148 143 151 156 157 160 156 159 163 163
27 6 17 16 13 18 21 17 14 1 11 6 351 333 294 283 231 200 191 172 184 231 268 284 335 358 0 350 345 357 10 114 129 134 130 127 135 136 135 134 138 147 152
26 28 21 17 16 22 23 23 19 359 8 5 338 328 298 282 278 251 223 196 177 193 221 223 334 344 357 7 10 4 29 102 113 116 115 114 116 117 116 116 113 120 132
32 28 22 23 22 24 25 27 9 1 17 356 338 349 326 297 307 286 248 236 197 180 186 189 223 352 9 30 47 49 65 93 98 104 107 106 106 107 111 112 112 120 130
29 30 24 25 28 27 22 25 13 6 8 352 347 351 321 296 288 283 260 228 199 165 176 193 52 47 60 67 58 58 67 81 94 99 101 101 102 104 108 113 118 119 119
33 35 37 37 32 25 17 19 10 6 4 350 340 337 323 314 305 281 241 213 188 164 157 166 144 117 98 112 91 83 76 85 91 100 102 104 105 106 107 108 112 114 120
35 32 40 38 32 26 19 15 14 12 8 356 346 337 325 328 308 294 238 184 173 153 142 148 146 115 104 113 98 79 82 73 81 97 98 103 110 109 108 108 109 115 130
57 50 47 38 36 31 19 14 17 18 10 4 356 352 341 330 292 256 185 168 149 130 129 134 132 117 108 108 115 111 90 63 73 85 92 106 111 115 122 140 155 164 179
62 60 55 36 26 26 13 16 15 21 12 5 359 360 0 3 354 292 190 167 150 142 140 140 139 132 136 139 150 144 125 97 45 81 100 99 110 142 224 217 214 212 208
46 50 49 39 27 11 1 20 34 15 7 7 355 353 357 5 10 28 94 165 177 168 162 159 156 158 165 158 148 145 133 124 167 227 135 201 163 224 243 232 226 219 218
49 48 39 41 24 355 6 21 35 29 16 360 351 356 8 13 12 29 58 70 95 167 178 171 165 172 171 172 160 155 156 155 185 188 133 233 230 237 244 237 230 229 230
55 46 33 22 15 357 7 19 34 35 25 10 8 9 12 2 8 25 61 68 58 65 158 167 172 176 172 170 170 167 162 137 59 139 139 171 243 242 250 243 238 232 234
49 37 26 21 18 350 2 22 46 36 30 11 7 12 10 4 359 50 73 79 63 39 76 115 143 160 170 179 167 136 132 121 108 273 171 159 226 258 274 261 250 238 239
74 45 34 16 13 348 357 24 50 53 35 4 358 1 10 15 20 73 89 98 87 61 79 90 89 97 153 187 185 172 162 151 150 216 212 168 199 158 297 279 260 253 248